This is the latest recevied weather packets stored in our database for station/object DH0GMA. If no packets are shown the sender has not sent any weather packets the latest 10 day(s).
| Time | Temp. | Humidity | Pressure | Rain* | Wind** | Luminosity | Snow |
|---|---|---|---|---|---|---|---|
| 1777551757 | 14.44° C | 30% | 1024.9 hPa | 0 mm | - | - | - |
| 1777548156 | 13.33° C | 38% | 1025.3 hPa | 0 mm | - | - | - |
| 1777546958 | 12.78° C | 38% | 1025.5 hPa | 0 mm | - | - | - |
| 1777545156 | 12.78° C | 40% | 1025.4 hPa | 0 mm | - | - | - |
| 1777544556 | 12.22° C | 41% | 1025.5 hPa | 0 mm | - | - | - |
| 1777543956 | 11.67° C | 41% | 1025.6 hPa | 0 mm | - | - | - |
| 1777543356 | 11.67° C | 41% | 1025.7 hPa | 0 mm | - | - | - |
| 1777540956 | 11.11° C | 41% | 1026 hPa | 0 mm | - | - | - |
| 1777540356 | 10.56° C | 43% | 1026 hPa | 0 mm | - | - | - |
| 1777536756 | 8.89° C | 46% | 1025.8 hPa | 0 mm | - | - | - |
| 1777536156 | 8.89° C | 45% | 1025.8 hPa | 0 mm | - | - | - |
| 1777534357 | 8.33° C | 46% | 1025.8 hPa | 0 mm | - | - | - |
| 1777533757 | 7.78° C | 47% | 1025.8 hPa | 0 mm | - | - | - |
| 1777533157 | 7.78° C | 49% | 1025.7 hPa | 0 mm | - | - | - |
| 1777532557 | 7.22° C | 48% | 1025.7 hPa | 0 mm | - | - | - |
| 1777531957 | 7.22° C | 48% | 1025.6 hPa | 0 mm | - | - | - |
| 1777530756 | 6.67° C | 48% | 1025.6 hPa | 0 mm | - | - | - |
| 1777530156 | 6.11° C | 49% | 1025.6 hPa | 0 mm | - | - | - |
| 1777529556 | 5.56° C | 48% | 1025.5 hPa | 0 mm | - | - | - |
| 1777528956 | 5.56° C | 48% | 1025.4 hPa | 0 mm | - | - | - |
| 1777528356 | 5.56° C | 50% | 1025.5 hPa | 0 mm | - | - | - |
| 1777527756 | 5.56° C | 49% | 1025.5 hPa | 0 mm | - | - | - |
| 1777527156 | 5.56° C | 51% | 1025.4 hPa | 0 mm | - | - | - |
| 1777526557 | 5° C | 51% | 1025.3 hPa | 0 mm | - | - | - |
| 1777525956 | 5° C | 53% | 1025.2 hPa | 0 mm | - | - | - |
* Rain latest hour (hover to see other rain measurements)
** Current wind speed in m/s (hover to see current wind gust speed)